FW6321 Weather Reports


time (UTC)temp
F
wind
direction
speed
knots
gust
knots
rain 1hr
in
rain 24hr
in
rain mn
in
humidity
%
barometer
mb
20200531071337 64 102 4.3 12.2 0.00 0.00 0.00 55 1024.8
20200531070835 64 106 5.2 9.6 0.00 0.00 0.00 59 1024.8
20200531070326 63 115 5.2 9.6 0.00 0.00 0.00 59 1024.8
20200531065822 63 72 4.3 8.7 0.00 0.00 0.00 59 1024.8
20200531065320 63 58 4.3 8.7 0.00 0.00 0.00 59 1024.8
20200531064819 63 56 4.3 9.6 0.00 0.00 0.00 62 1024.8
20200531064329 62 32 4.3 9.6 0.00 0.00 0.00 60 1024.7
20200531063815 62 90 4.3 8.7 0.00 0.00 0.00 62 1024.7
20200531063315 62 74 3.5 7.0 0.00 0.00 0.00 62 1024.8
20200531062824 62 33 3.5 7.0 0.00 0.00 0.00 63 1024.8
20200531062311 62 62 3.5 7.0 0.00 0.00 0.00 64 1024.8
20200531061809 62 60 3.5 7.0 0.00 0.00 0.00 63 1024.8
20200531061319 61 59 3.5 7.0 0.00 0.00 0.00 65 1024.7
20200531060811 61 96 3.5 7.8 0.00 0.00 0.00 66 1024.7
20200531060316 61 83 3.5 7.8 0.00 0.00 0.00 65 1024.8
20200531055812 60 66 3.5 7.0 0.00 0.00 0.00 66 1024.8
20200531055316 60 56 3.5 7.0 0.00 0.00 0.00 67 1024.8
20200531054813 60 56 3.5 7.0 0.00 0.00 0.00 67 1024.8
20200531054318 59 62 3.5 7.0 0.00 0.00 0.00 68 1024.8
20200531053759 59 82 3.5 9.6 0.00 0.00 0.00 69 1024.8
20200531053310 58 65 4.3 9.6 0.00 0.00 0.00 69 1024.7
20200531052812 58 100 4.3 9.6 0.00 0.00 0.00 69 1024.7
20200531052258 58 65 3.5 7.0 0.00 0.00 0.00 71 1024.6
20200531051758 57 109 3.5 7.0 0.00 0.00 0.00 72 1024.6
20200531051254 56 60 3.5 7.0 0.00 0.00 0.00 72 1024.6
20200531050754 56 114 3.5 7.0 0.00 0.00 0.00 73 1024.6
20200531050253 56 90 3.5 7.0 0.00 0.00 0.00 73 1024.5
20200531045758 56 86 3.5 7.0 0.00 0.00 0.00 73 1024.5
20200531045251 56 60 3.5 7.0 0.00 0.00 0.00 74 1024.5
20200531044750 55 91 3.5 7.0 0.00 0.00 0.00 73 1024.4
20200531044246 55 89 3.5 7.8 0.00 0.00 0.00 74 1024.5
20200531043756 55 61 3.5 7.8 0.00 0.00 0.00 73 1024.3
20200531043246 55 72 3.5 7.0 0.00 0.00 0.00 73 1024.3
20200531042756 56 73 3.5 7.0 0.00 0.00 0.00 73 1024.3
20200531042247 56 69 3.5 7.0 0.00 0.00 0.00 73 1024.3
20200531041740 55 87 2.6 7.0 0.00 0.00 0.00 74 1024.3
20200531041237 55 82 2.6 7.0 0.00 0.00 0.00 74 1024.2
20200531040738 55 95 2.6 7.0 0.00 0.00 0.00 75 1024.2
20200531040234 55 111 2.6 5.2 0.00 0.00 0.00 74 1024.1
20200531035732 55 89 2.6 5.2 0.00 0.00 0.00 74 1024.2
20200531035237 55 70 2.6 5.2 0.00 0.00 0.00 74 1024.0
20200531034731 55 62 1.7 5.2 0.00 0.00 0.00 73 1024.1
20200531034221 55 44 1.7 4.3 0.00 0.00 0.00 72 1024.0
20200531033730 56 49 1.7 4.3 0.00 0.00 0.00 72 1024.0
20200531033218 56 43 1.7 5.2 0.00 0.00 0.00 72 1024.0
20200531032728 56 37 2.6 5.2 0.00 0.00 0.00 71 1024.0
20200531032225 56 78 3.5 6.1 0.00 0.00 0.00 71 1023.9
20200531031724 56 89 3.5 6.1 0.00 0.00 0.00 71 1023.9
20200531031212 56 80 3.5 6.1 0.00 0.00 0.00 70 1023.8
20200531030712 56 87 2.6 4.3 0.00 0.00 0.00 71 1023.8
20200531030211 56 93 2.6 5.2 0.00 0.00 0.00 71 1023.9
20200531025722 56 75 2.6 5.2 0.00 0.00 0.00 71 1023.9
20200531025210 56 75 2.6 4.3 0.00 0.00 0.00 71 1023.7
20200531024711 56 97 2.6 4.3 0.00 0.00 0.00 71 1023.7
20200531024206 56 85 2.6 4.3 0.00 0.00 0.00 71 1023.7
20200531023713 56 70 2.6 4.3 0.00 0.00 0.00 71 1023.7
20200531023204 56 85 2.6 4.3 0.00 0.00 0.00 70 1023.8
20200531022705 57 91 2.6 4.3 0.00 0.00 0.00 70 1023.8
20200531022204 57 72 2.6 4.3 0.00 0.00 0.00 70 1023.9
20200531021702 57 78 2.6 6.1 0.00 0.00 0.00 70 1023.8
20200531021204 57 100 2.6 6.1 0.00 0.00 0.00 70 1023.7
20200531020703 57 99 3.5 7.0 0.00 0.00 0.00 70 1023.8
20200531020205 57 82 3.5 7.0 0.00 0.00 0.00 69 1023.8
20200531015703 57 82 3.5 7.8 0.00 0.00 0.00 69 1023.9
20200531015215 57 98 3.5 7.8 0.00 0.00 0.00 69 1023.9
20200531014703 57 91 3.5 8.7 0.00 0.00 0.00 69 1023.9
20200531014201 58 91 3.5 8.7 0.00 0.00 0.00 68 1023.9
20200531013702 58 62 3.5 7.8 0.00 0.00 0.00 68 1023.9
20200531013204 58 87 4.3 7.8 0.00 0.00 0.00 68 1023.9
20200531012704 58 60 4.3 7.8 0.00 0.00 0.00 68 1023.9
20200531012204 58 88 4.3 7.8 0.00 0.00 0.00 68 1023.9
20200531011703 58 103 3.5 7.8 0.00 0.00 0.00 68 1023.9
20200531011155 58 99 3.5 7.8 0.00 0.00 0.00 68 1023.8
20200531010705 58 106 2.6 5.2 0.00 0.00 0.00 68 1023.9
20200531010159 59 59 3.5 7.8 0.00 0.00 0.00 69 1023.8
20200531005658 59 91 4.3 7.8 0.00 0.00 0.00 68 1023.8
20200531005154 59 72 5.2 9.6 0.00 0.00 0.00 68 1023.8
20200531004651 59 79 5.2 9.6 0.00 0.00 0.00 68 1023.8
20200531004153 59 89 5.2 9.6 0.00 0.00 0.00 68 1023.8
20200531003654 59 96 5.2 9.6 0.00 0.00 0.00 68 1023.9
20200531003200 59 74 4.3 9.6 0.00 0.00 0.00 69 1023.9
20200531002654 58 87 3.5 8.7 0.00 0.00 0.00 70 1023.9
20200531002153 58 99 1.7 6.1 0.00 0.00 0.00 71 1023.9
20200531001654 58 91 1.7 4.3 0.00 0.00 0.00 72 1023.8
20200531001153 58 51 1.7 5.2 0.00 0.00 0.00 72 1023.8
20200531000651 58 52 1.7 5.2 0.00 0.00 0.00 72 1023.8
20200531000146 59 38 1.7 3.5 0.00 0.00 0.00 72 1023.9
20200530235648 59 44 1.7 4.3 0.00 0.00 0.00 71 1023.9
20200530235149 59 47 1.7 4.3 0.00 0.00 0.00 71 1023.8
20200530234645 59 73 1.7 5.2 0.00 0.00 0.00 70 1023.9
20200530234148 59 51 1.7 5.2 0.00 0.00 0.00 70 1023.9
20200530233643 59 38 1.7 4.3 0.00 0.00 0.00 69 1024.0
20200530233153 59 34 1.7 3.5 0.00 0.00 0.00 69 1023.9
20200530232653 59 56 0.9 3.5 0.00 0.00 0.00 68 1023.9
20200530232139 59 51 1.7 4.3 0.00 0.00 0.00 68 1023.8
20200530231643 59 56 1.7 4.3 0.00 0.00 0.00 67 1023.8
20200530231139 60 51 1.7 5.2 0.00 0.00 0.00 67 1023.8
20200530230649 60 77 2.6 5.2 0.00 0.00 0.00 66 1023.9
20200530230142 60 48 1.7 5.2 0.00 0.00 0.00 66 1023.8
20200530225636 60 48 1.7 3.5 0.00 0.00 0.00 66 1023.7
20200530225138 60 91 1.7 4.3 0.00 0.00 0.00 66 1023.8
20200530224638 60 92 1.7 4.3 0.00 0.00 0.00 64 1023.7
20200530224141 60 81 1.7 3.5 0.00 0.00 0.00 64 1023.7
20200530223722 60 60 1.7 5.2 0.00 0.00 0.00 64 1023.8
20200530222649 60 67 1.7 3.5 0.00 0.00 0.00 63 1023.7
20200530222140 61 60 0.9 3.5 0.00 0.00 0.00 63 1023.7
20200530221643 61 54 0.9 2.6 0.00 0.00 0.00 61 1023.6
20200530221144 61 53 1.7 4.3 0.00 0.00 0.00 61 1023.6
20200530220633 61 51 2.6 4.3 0.00 0.00 0.00 61 1023.5
20200530220144 61 45 2.6 4.3 0.00 0.00 0.00 60 1023.7
20200530215637 62 55 2.6 6.1 0.00 0.00 0.00 60 1023.6
20200530215141 62 42 2.6 6.1 0.00 0.00 0.00 60 1023.6
20200530214638 62 35 1.7 5.2 0.00 0.00 0.00 60 1023.7
20200530214133 62 48 1.7 4.3 0.00 0.00 0.00 61 1023.6
20200530213633 62 104 1.7 4.3 0.00 0.00 0.00 62 1023.6
20200530213145 62 31 2.6 6.1 0.00 0.00 0.00 62 1023.7
20200530212645 62 57 3.5 8.7 0.00 0.00 0.00 62 1023.6
20200530212137 62 31 4.3 8.7 0.00 0.00 0.00 61 1023.4
20200530211632 63 43 3.5 7.8 0.00 0.00 0.00 62 1023.4
20200530211134 63 75 3.5 7.8 0.00 0.00 0.00 64 1023.4
20200530210630 63 64 3.5 7.8 0.00 0.00 0.00 64 1023.3
20200530210128 63 49 3.5 8.7 0.00 0.00 0.00 65 1023.3
20200530205643 63 64 3.5 8.7 0.00 0.00 0.00 66 1023.4
20200530205134 63 77 4.3 8.7 0.00 0.00 0.00 67 1023.3
20200530204630 63 50 4.3 8.7 0.00 0.00 0.00 66 1023.3
20200530204143 63 50 3.5 7.8 0.00 0.00 0.00 66 1023.2
20200530203638 63 39 1.7 7.0 0.00 0.00 0.00 65 1023.1
20200530203139 63 74 2.6 7.0 0.00 0.00 0.00 66 1023.0
20200530202631 63 50 2.6 7.8 0.00 0.00 0.00 65 1023.0
20200530202135 63 39 2.6 7.8 0.00 0.00 0.00 65 1022.9
20200530201637 64 35 2.6 5.2 0.00 0.00 0.00 66 1022.9
20200530201129 64 6 2.6 6.1 0.00 0.00 0.00 66 1022.9
20200530200653 64 69 1.7 7.0 0.00 0.00 0.00 65 1022.8
20200530200126 64 64 1.7 7.0 0.00 0.00 0.00 65 1022.6
20200530195624 65 4 2.6 6.1 0.00 0.00 0.00 64 1022.5
20200530195126 65 44 3.5 6.1 0.00 0.00 0.00 64 1022.5
20200530194627 65 31 2.6 6.1 0.00 0.00 0.00 63 1022.5
20200530194121 65 52 3.5 9.6 0.00 0.00 0.00 63 1022.3
20200530193626 65 52 4.3 9.6 0.00 0.00 0.00 62 1022.3
20200530193133 65 41 4.3 9.6 0.00 0.00 0.00 62 1022.2
20200530192614 66 60 5.2 9.6 0.00 0.00 0.00 61 1022.1
20200530192124 66 44 5.2 9.6 0.00 0.00 0.00 60 1022.1
20200530191623 66 35 5.2 12.2 0.00 0.00 0.00 59 1022.1
20200530191112 67 62 4.3 12.2 0.00 0.00 0.00 58 1022.1
20200530190622 67 43 3.5 9.6 0.00 0.00 0.00 57 1022.1
20200530190112 67 33 4.3 9.6 0.00 0.00 0.00 57 1022.0
20200530185621 68 39 5.2 11.3 0.00 0.00 0.00 55 1022.0
20200530185115 68 300 5.2 11.3 0.00 0.00 0.00 54 1022.0
20200530184621 68 1 4.3 11.3 0.00 0.00 0.00 53 1022.0
20200530184121 68 63 4.3 11.3 0.00 0.00 0.00 52 1022.1
20200530183621 69 31 4.3 9.6 0.00 0.00 0.00 51 1022.0
20200530183123 69 82 4.3 11.3 0.00 0.00 0.00 50 1022.1
20200530182620 69 64 5.2 13.9 0.00 0.00 0.00 49 1022.0
20200530182123 70 28 5.2 13.9 0.00 0.00 0.00 48 1022.0
20200530181606 70 42 5.2 11.3 0.00 0.00 0.00 48 1021.9
20200530181107 70 61 6.1 11.3 0.00 0.00 0.00 47 1022.0
20200530180606 71 45 6.1 15.6 0.00 0.00 0.00 44 1022.0
20200530180106 71 88 6.1 15.6 0.00 0.00 0.00 45 1021.9
20200530175617 71 75 5.2 13.0 0.00 0.00 0.00 43 1022.1
20200530175118 72 18 6.1 13.0 0.00 0.00 0.00 43 1021.9
20200530174608 72 23 4.3 11.3 0.00 0.00 0.00 42 1022.0
20200530174117 72 54 3.5 9.6 0.00 0.00 0.00 38 1022.0
20200530173613 72 89 3.5 7.8 0.00 0.00 0.00 38 1022.0
20200530173109 72 113 4.3 7.0 0.00 0.00 0.00 38 1022.0
20200530172619 73 39 4.3 8.7 0.00 0.00 0.00 39 1022.1
20200530172121 73 82 4.3 8.7 0.00 0.00 0.00 38 1022.0
20200530171619 74 81 4.3 8.7 0.00 0.00 0.00 38 1022.0
20200530171112 74 112 4.3 8.7 0.00 0.00 0.00 36 1022.0
20200530170620 73 86 5.2 8.7 0.00 0.00 0.00 35 1022.1
20200530170103 73 63 5.2 9.6 0.00 0.00 0.00 35 1022.1
20200530165602 73 100 6.1 12.2 0.00 0.00 0.00 36 1022.0
20200530165059 74 121 5.2 12.2 0.00 0.00 0.00 36 1022.2
20200530164600 73 97 3.5 7.8 0.00 0.00 0.00 36 1022.1
20200530164103 73 94 4.3 11.3 0.00 0.00 0.00 36 1022.1
20200530163602 73 99 5.2 11.3 0.00 0.00 0.00 36 1022.1
20200530163059 74 37 5.2 11.3 0.00 0.00 0.00 36 1022.3
20200530162608 74 70 4.3 11.3 0.00 0.00 0.00 34 1022.2
20200530162113 74 84 3.5 7.8 0.00 0.00 0.00 36 1022.2
20200530161557 74 89 3.5 7.8 0.00 0.00 0.00 37 1022.3
20200530161058 74 46 3.5 7.8 0.00 0.00 0.00 35 1022.4
20200530160555 74 50 3.5 7.8 0.00 0.00 0.00 35 1022.5
20200530160102 74 75 4.3 7.8 0.00 0.00 0.00 35 1022.4
20200530155559 74 89 4.3 7.8 0.00 0.00 0.00 38 1022.5
20200530155054 74 94 4.3 8.7 0.00 0.00 0.00 37 1022.6
20200530154547 74 60 4.3 8.7 0.00 0.00 0.00 37 1022.6
20200530154051 73 57 3.5 7.8 0.00 0.00 0.00 37 1022.6
20200530153544 73 85 4.3 8.7 0.00 0.00 0.00 36 1022.7
20200530153053 73 130 5.2 11.3 0.00 0.00 0.00 36 1022.7
20200530152550 73 22 5.2 13.9 0.00 0.00 0.00 36 1022.8
20200530152052 74 83 3.5 13.9 0.00 0.00 0.00 35 1022.7
20200530151541 74 87 2.6 7.8 0.00 0.00 0.00 36 1022.6
20200530151043 73 112 3.5 8.7 0.00 0.00 0.00 38 1022.7
20200530150542 73 70 5.2 11.3 0.00 0.00 0.00 38 1022.8
20200530150042 74 66 5.2 11.3 0.00 0.00 0.00 34 1022.8
20200530145544 74 79 4.3 8.7 0.00 0.00 0.00 37 1022.9
20200530145044 75 102 4.3 8.7 0.00 0.00 0.00 36 1022.9
20200530144537 75 78 4.3 7.8 0.00 0.00 0.00 35 1022.9
20200530144038 75 79 4.3 7.8 0.00 0.00 0.00 36 1022.9
20200530143542 75 43 4.3 8.7 0.00 0.00 0.00 37 1023.1
20200530143040 74 77 6.1 13.9 0.00 0.00 0.00 36 1023.1
20200530142547 74 68 5.2 13.9 0.00 0.00 0.00 34 1023.2
20200530142041 74 87 3.5 9.6 0.00 0.00 0.00 34 1023.2
20200530141537 75 110 3.5 9.6 0.00 0.00 0.00 35 1023.2
20200530141036 75 89 3.5 7.8 0.00 0.00 0.00 33 1023.3
20200530140538 74 99 4.3 10.4 0.00 0.00 0.00 36 1023.4
20200530140037 74 69 6.1 14.8 0.00 0.00 0.00 36 1023.4
20200530135541 74 116 5.2 14.8 0.00 0.00 0.00 34 1023.6
20200530135031 74 84 4.3 10.4 0.00 0.00 0.00 36 1023.5
20200530134530 74 149 5.2 13.0 0.00 0.00 0.00 34 1023.5
20200530134030 74 119 6.1 13.0 0.00 0.00 0.00 37 1023.7
20200530133531 74 54 6.1 13.0 0.00 0.00 0.00 36 1023.7
20200530133027 74 75 5.2 13.0 0.00 0.00 0.00 35 1023.9
20200530132531 74 56 5.2 12.2 0.00 0.00 0.00 36 1023.7
20200530132029 74 84 6.1 9.6 0.00 0.00 0.00 34 1023.8
20200530131524 74 84 4.3 9.6 0.00 0.00 0.00 37 1023.8
20200530131026 74 89 3.5 9.6 0.00 0.00 0.00 38 1023.8
20200530130526 74 95 4.3 9.6 0.00 0.00 0.00 38 1024.0
20200530130021 75 70 3.5 8.7 0.00 0.00 0.00 38 1024.0
20200530125523 75 92 4.3 8.7 0.00 0.00 0.00 37 1024.1
20200530125031 74 106 6.1 10.4 0.00 0.00 0.00 38 1024.2
20200530124533 74 128 5.2 10.4 0.00 0.00 0.00 37 1024.2
20200530124019 75 70 3.5 7.8 0.00 0.00 0.00 35 1024.1
20200530123518 74 98 4.3 10.4 0.00 0.00 0.00 36 1024.2
20200530123017 74 95 5.2 10.4 0.00 0.00 0.00 36 1024.2
20200530122529 74 77 4.3 10.4 0.00 0.00 0.00 36 1024.4
20200530122030 74 83 4.3 8.7 0.00 0.00 0.00 37 1024.4
20200530121514 73 77 4.3 9.6 0.00 0.00 0.00 38 1024.4
20200530121010 73 61 5.2 10.4 0.00 0.00 0.00 36 1024.4
20200530120511 74 108 6.1 11.3 0.00 0.00 0.00 38 1024.6
20200530120013 74 81 4.3 11.3 0.00 0.00 0.00 38 1024.6
20200530115509 73 68 6.1 12.2 0.00 0.00 0.00 37 1024.5
20200530115015 73 72 7.0 12.2 0.00 0.00 0.00 37 1024.6
20200530114511 73 115 6.1 14.8 0.00 0.00 0.00 39 1024.6
20200530114015 72 88 6.1 14.8 0.00 0.00 0.00 37 1024.7
20200530113504 72 87 6.1 13.9 0.00 0.00 0.00 37 1024.7
20200530113017 73 111 4.3 8.7 0.00 0.00 0.00 39 1024.8
20200530112506 72 89 5.2 13.0 0.00 0.00 0.00 38 1024.8
20200530112008 73 77 5.2 13.0 0.00 0.00 0.00 37 1024.9
20200530111513 73 143 5.2 11.3 0.00 0.00 0.00 36 1024.9
20200530111006 73 112 5.2 11.3 0.00 0.00 0.00 37 1025.0
20200530110506 73 71 5.2 9.6 0.00 0.00 0.00 37 1025.0
20200530110008 72 103 5.2 10.4 0.00 0.00 0.00 40 1025.0
20200530105503 72 80 5.2 11.3 0.00 0.00 0.00 41 1025.1
20200530105003 71 61 5.2 11.3 0.00 0.00 0.00 38 1025.2
20200530104503 71 56 5.2 8.7 0.00 0.00 0.00 38 1025.2
20200530104005 72 81 4.3 8.7 0.00 0.00 0.00 41 1025.2
20200530103504 72 62 4.3 8.7 0.00 0.00 0.00 38 1025.2
20200530103006 72 137 6.1 13.9 0.00 0.00 0.00 39 1025.3
20200530102504 71 113 6.1 13.9 0.00 0.00 0.00 40 1025.5
20200530102010 72 98 5.2 10.4 0.00 0.00 0.00 39 1025.4
20200530101457 72 106 4.3 9.6 0.00 0.00 0.00 38 1025.4
20200530100959 72 108 5.2 14.8 0.00 0.00 0.00 38 1025.5
20200530100458 71 144 5.2 14.8 0.00 0.00 0.00 38 1025.5
20200530095957 71 80 4.3 10.4 0.00 0.00 0.00 41 1025.4
20200530095451 71 133 5.2 11.3 0.00 0.00 0.00 39 1025.4
20200530094951 71 106 6.1 13.0 0.00 0.00 0.00 39 1025.5
20200530094452 71 102 5.2 13.9 0.00 0.00 0.00 39 1025.5
20200530093952 71 100 5.2 13.9 0.00 0.00 0.00 39 1025.7
20200530093456 71 99 4.3 9.6 0.00 0.00 0.00 39 1025.5
20200530092953 71 181 4.3 11.3 0.00 0.00 0.00 40 1025.6
20200530092452 71 75 4.3 11.3 0.00 0.00 0.00 42 1025.5
20200530091950 71 111 4.3 9.6 0.00 0.00 0.00 41 1025.6
20200530091447 70 111 6.1 12.2 0.00 0.00 0.00 43 1025.6
20200530091000 70 116 5.2 12.2 0.00 0.00 0.00 43 1025.6
20200530090447 70 79 5.2 13.0 0.00 0.00 0.00 44 1025.6
20200530085951 70 104 5.2 13.0 0.00 0.00 0.00 42 1025.6
20200530085451 70 87 4.3 8.7 0.00 0.00 0.00 46 1025.7
20200530084945 69 81 5.2 12.2 0.00 0.00 0.00 45 1025.7
20200530084442 69 79 5.2 12.2 0.00 0.00 0.00 45 1025.7
20200530083941 69 93 4.3 10.4 0.00 0.00 0.00 46 1025.6
20200530083442 69 90 4.3 8.7 0.00 0.00 0.00 45 1025.7
20200530082954 69 95 4.3 8.7 0.00 0.00 0.00 50 1025.7
20200530082439 69 84 5.2 10.4 0.00 0.00 0.00 48 1025.8
20200530081944 68 89 4.3 10.4 0.00 0.00 0.00 49 1025.8
20200530081432 68 61 3.5 9.6 0.00 0.00 0.00 49 1025.9
20200530080935 68 135 3.5 8.7 0.00 0.00 0.00 49 1025.8
20200530080433 68 101 4.3 7.8 0.00 0.00 0.00 52 1025.8
20200530075936 67 62 5.2 9.6 0.00 0.00 0.00 53 1025.9
20200530075433 67 120 6.1 9.6 0.00 0.00 0.00 54 1025.8
20200530074936 66 83 4.3 10.4 0.00 0.00 0.00 54 1025.8
20200530074437 66 90 5.2 10.4 0.00 0.00 0.00 55 1025.8
20200530073931 66 106 5.2 8.7 0.00 0.00 0.00 56 1025.9
20200530073432 66 111 4.3 7.8 0.00 0.00 0.00 56 1025.8
20200530072930 65 72 5.2 7.8 0.00 0.00 0.00 58 1025.8
20200530072433 65 95 5.2 8.7 0.00 0.00 0.00 60 1025.8
20200530071944 65 97 4.3 8.7 0.00 0.00 0.00 58 1025.8